Year,Month,Day,Hour,Minute,Value (Times are PST for temperature in C)
2015,05,29,00,00,15.60
2015,05,29,00,01,15.60
2015,05,29,00,02,15.60
2015,05,29,00,03,15.60
2015,05,29,00,04,15.60
2015,05,29,00,05,15.50
2015,05,29,00,06,15.50
2015,05,29,00,07,15.50
2015,05,29,00,08,15.50
2015,05,29,00,09,15.40
2015,05,29,00,10,15.40
2015,05,29,00,11,15.40
2015,05,29,00,12,15.40
2015,05,29,00,13,15.40
2015,05,29,00,14,15.40
2015,05,29,00,15,15.40
2015,05,29,00,16,15.40
2015,05,29,00,17,15.30
2015,05,29,00,18,15.30
2015,05,29,00,19,15.30
2015,05,29,00,20,15.30
2015,05,29,00,21,15.30
2015,05,29,00,22,15.30
2015,05,29,00,23,15.30
2015,05,29,00,24,15.20
2015,05,29,00,25,15.20
2015,05,29,00,26,15.20
2015,05,29,00,27,15.20
2015,05,29,00,28,15.20
2015,05,29,00,29,15.20
2015,05,29,00,30,15.20
2015,05,29,00,31,15.20
2015,05,29,00,32,15.10
2015,05,29,00,33,15.10
2015,05,29,00,34,15.10
2015,05,29,00,35,15.10
2015,05,29,00,36,15.10
2015,05,29,00,37,15.10
2015,05,29,00,38,15.10
2015,05,29,00,39,15.00
2015,05,29,00,40,15.00
2015,05,29,00,41,15.00
2015,05,29,00,42,15.00
2015,05,29,00,43,15.00
2015,05,29,00,44,15.00
2015,05,29,00,45,15.00
2015,05,29,00,46,15.00
2015,05,29,00,47,15.00
2015,05,29,00,48,15.00
2015,05,29,00,49,15.00
2015,05,29,00,50,15.00
2015,05,29,00,51,14.90
2015,05,29,00,52,14.90
2015,05,29,00,53,14.90
2015,05,29,00,54,14.90
2015,05,29,00,55,14.90
2015,05,29,00,56,14.90
2015,05,29,00,57,14.90
2015,05,29,00,58,14.90
2015,05,29,00,59,14.90
2015,05,29,01,00,14.90
2015,05,29,01,01,14.90
2015,05,29,01,02,14.80
2015,05,29,01,03,14.80
2015,05,29,01,04,14.80
2015,05,29,01,05,14.80
2015,05,29,01,06,14.80
2015,05,29,01,07,14.80
2015,05,29,01,08,14.80
2015,05,29,01,09,14.80
2015,05,29,01,10,14.80
2015,05,29,01,11,14.80
2015,05,29,01,12,14.80
2015,05,29,01,13,14.80
2015,05,29,01,14,14.80
2015,05,29,01,15,14.80
2015,05,29,01,16,14.80
2015,05,29,01,17,14.80
2015,05,29,01,18,14.80
2015,05,29,01,19,14.80
2015,05,29,01,20,14.80
2015,05,29,01,21,14.80
2015,05,29,01,22,14.70
2015,05,29,01,23,14.70
2015,05,29,01,24,14.70
2015,05,29,01,25,14.70
2015,05,29,01,26,14.80
2015,05,29,01,27,14.80
2015,05,29,01,28,14.80
2015,05,29,01,29,14.80
2015,05,29,01,30,14.80
2015,05,29,01,31,14.80
2015,05,29,01,32,14.80
2015,05,29,01,33,14.80
2015,05,29,01,34,14.80
2015,05,29,01,35,14.80
2015,05,29,01,36,14.80
2015,05,29,01,37,14.80
2015,05,29,01,38,14.80
2015,05,29,01,39,14.80
2015,05,29,01,40,14.80
2015,05,29,01,41,14.80
2015,05,29,01,42,14.80
2015,05,29,01,43,14.80
2015,05,29,01,44,14.80
2015,05,29,01,45,14.80
2015,05,29,01,46,14.80
2015,05,29,01,47,14.80
2015,05,29,01,48,14.70
2015,05,29,01,49,14.70
2015,05,29,01,50,14.70
2015,05,29,01,51,14.70
2015,05,29,01,52,14.70
2015,05,29,01,53,14.70
2015,05,29,01,54,14.70
2015,05,29,01,55,14.70
2015,05,29,01,56,14.70
2015,05,29,01,57,14.70
2015,05,29,01,58,14.70
2015,05,29,01,59,14.70
2015,05,29,02,00,14.70
2015,05,29,02,01,14.70
2015,05,29,02,02,14.70
2015,05,29,02,03,14.70
2015,05,29,02,04,14.70
2015,05,29,02,05,14.70
2015,05,29,02,06,14.70
2015,05,29,02,07,14.70
2015,05,29,02,08,14.80
2015,05,29,02,09,14.70
2015,05,29,02,10,14.70
2015,05,29,02,11,14.70
2015,05,29,02,12,14.70
2015,05,29,02,13,14.70
2015,05,29,02,14,14.70
2015,05,29,02,15,14.70
2015,05,29,02,16,14.70
2015,05,29,02,17,14.70
2015,05,29,02,18,14.70
2015,05,29,02,19,14.70
2015,05,29,02,20,14.70
2015,05,29,02,21,14.70
2015,05,29,02,22,14.70
2015,05,29,02,23,14.70
2015,05,29,02,24,14.70
2015,05,29,02,25,14.70
2015,05,29,02,26,14.70
2015,05,29,02,27,14.70
2015,05,29,02,28,14.70
2015,05,29,02,29,14.80
2015,05,29,02,30,14.80
2015,05,29,02,31,14.80
2015,05,29,02,32,14.80
2015,05,29,02,33,14.80
2015,05,29,02,34,14.90
2015,05,29,02,35,14.90
2015,05,29,02,36,15.00
2015,05,29,02,37,15.10
2015,05,29,02,38,15.20
2015,05,29,02,39,15.20
2015,05,29,02,40,15.30
2015,05,29,02,41,15.30
2015,05,29,02,42,15.40
2015,05,29,02,43,15.40
2015,05,29,02,44,15.40
2015,05,29,02,45,15.40
2015,05,29,02,46,15.40
2015,05,29,02,47,15.40
2015,05,29,02,48,15.40
2015,05,29,02,49,15.50
2015,05,29,02,50,15.50
2015,05,29,02,51,15.50
2015,05,29,02,52,15.40
2015,05,29,02,53,15.40
2015,05,29,02,54,15.40
2015,05,29,02,55,15.40
2015,05,29,02,56,15.30
2015,05,29,02,57,15.30
2015,05,29,02,58,15.30
2015,05,29,02,59,15.20
2015,05,29,03,00,15.20
2015,05,29,03,01,15.10
2015,05,29,03,02,15.10
2015,05,29,03,03,15.10
2015,05,29,03,04,15.00
2015,05,29,03,05,15.00
2015,05,29,03,06,14.90
2015,05,29,03,07,14.90
2015,05,29,03,08,14.90
2015,05,29,03,09,14.90
2015,05,29,03,10,14.80
2015,05,29,03,11,14.80
2015,05,29,03,12,14.80
2015,05,29,03,13,14.80
2015,05,29,03,14,14.80
2015,05,29,03,15,14.70
2015,05,29,03,16,14.70
2015,05,29,03,17,14.70
2015,05,29,03,18,14.70
2015,05,29,03,19,14.60
2015,05,29,03,20,14.60
2015,05,29,03,21,14.60
2015,05,29,03,22,14.60
2015,05,29,03,23,14.60
2015,05,29,03,24,14.50
2015,05,29,03,25,14.50
2015,05,29,03,26,14.50
2015,05,29,03,27,14.40
2015,05,29,03,28,14.40
2015,05,29,03,29,14.40
2015,05,29,03,30,14.40
2015,05,29,03,31,14.40
2015,05,29,03,32,14.40
2015,05,29,03,33,14.30
2015,05,29,03,34,14.30
2015,05,29,03,35,14.30
2015,05,29,03,36,14.30
2015,05,29,03,37,14.30
2015,05,29,03,38,14.30
2015,05,29,03,39,14.30
2015,05,29,03,40,14.30
2015,05,29,03,41,14.20
2015,05,29,03,42,14.20
2015,05,29,03,43,14.20
2015,05,29,03,44,14.20
2015,05,29,03,45,14.20
2015,05,29,03,46,14.20
2015,05,29,03,47,14.10
2015,05,29,03,48,14.10
2015,05,29,03,49,14.10
2015,05,29,03,50,14.10
2015,05,29,03,51,14.00
2015,05,29,03,52,14.00
2015,05,29,03,53,13.90
2015,05,29,03,54,13.90
2015,05,29,03,55,13.90
2015,05,29,03,56,13.90
2015,05,29,03,57,13.90
2015,05,29,03,58,13.80
2015,05,29,03,59,13.80
2015,05,29,04,00,13.80
2015,05,29,04,01,13.80
2015,05,29,04,02,13.80
2015,05,29,04,03,13.70
2015,05,29,04,04,13.70
2015,05,29,04,05,13.70
2015,05,29,04,06,13.60
2015,05,29,04,07,13.60
2015,05,29,04,08,13.50
2015,05,29,04,09,13.50
2015,05,29,04,10,13.50
2015,05,29,04,11,13.50
2015,05,29,04,12,13.40
2015,05,29,04,13,13.40
2015,05,29,04,14,13.40
2015,05,29,04,15,13.40
2015,05,29,04,16,13.40
2015,05,29,04,17,13.40
2015,05,29,04,18,13.30
2015,05,29,04,19,13.30
2015,05,29,04,20,13.30
2015,05,29,04,21,13.30
2015,05,29,04,22,13.30
2015,05,29,04,23,13.30
2015,05,29,04,24,13.30
2015,05,29,04,25,13.30
2015,05,29,04,26,13.30
2015,05,29,04,27,13.30
2015,05,29,04,28,13.30
2015,05,29,04,29,13.30
2015,05,29,04,30,13.20
2015,05,29,04,31,13.20
2015,05,29,04,32,13.20
2015,05,29,04,33,13.20
2015,05,29,04,34,13.10
2015,05,29,04,35,13.10
2015,05,29,04,36,13.10
2015,05,29,04,37,13.10
2015,05,29,04,38,13.00
2015,05,29,04,39,13.00
2015,05,29,04,40,13.00
2015,05,29,04,41,13.00
2015,05,29,04,42,13.00
2015,05,29,04,43,13.00
2015,05,29,04,44,13.00
2015,05,29,04,45,12.90
2015,05,29,04,46,12.90
2015,05,29,04,47,12.90
2015,05,29,04,48,12.90
2015,05,29,04,49,12.90
2015,05,29,04,50,12.90
2015,05,29,04,51,12.90
2015,05,29,04,52,12.90
2015,05,29,04,53,12.90
2015,05,29,04,54,12.90
2015,05,29,04,55,12.90
2015,05,29,04,56,12.90
2015,05,29,04,57,12.90
2015,05,29,04,58,12.80
2015,05,29,04,59,12.80
2015,05,29,05,00,12.80
2015,05,29,05,01,12.80
2015,05,29,05,02,12.80
2015,05,29,05,03,12.80
2015,05,29,05,04,12.80
2015,05,29,05,05,12.80
2015,05,29,05,06,12.80
2015,05,29,05,07,12.80
2015,05,29,05,08,12.70
2015,05,29,05,09,12.70
2015,05,29,05,10,12.70
2015,05,29,05,11,12.70
2015,05,29,05,12,12.70
2015,05,29,05,13,12.70
2015,05,29,05,14,12.70
2015,05,29,05,15,12.70
2015,05,29,05,16,12.70
2015,05,29,05,17,12.70
2015,05,29,05,18,12.70
2015,05,29,05,19,12.70
2015,05,29,05,20,12.70
2015,05,29,05,21,12.70
2015,05,29,05,22,12.70
2015,05,29,05,23,12.70
2015,05,29,05,24,12.70
2015,05,29,05,25,12.70
2015,05,29,05,26,12.70
2015,05,29,05,27,12.70
2015,05,29,05,28,12.70
2015,05,29,05,29,12.70
2015,05,29,05,30,12.70
2015,05,29,05,31,12.70
2015,05,29,05,32,12.70
2015,05,29,05,33,12.60
2015,05,29,05,34,12.60
2015,05,29,05,35,12.60
2015,05,29,05,36,12.60
2015,05,29,05,37,12.60
2015,05,29,05,38,12.60
2015,05,29,05,39,12.60
2015,05,29,05,40,12.60
2015,05,29,05,41,12.60
2015,05,29,05,42,12.60
2015,05,29,05,43,12.60
2015,05,29,05,44,12.60
2015,05,29,05,45,12.60
2015,05,29,05,46,12.60
2015,05,29,05,47,12.50
2015,05,29,05,48,12.60
2015,05,29,05,49,12.60
2015,05,29,05,50,12.60
2015,05,29,05,51,12.60
2015,05,29,05,52,12.60
2015,05,29,05,53,12.60
2015,05,29,05,54,12.60
2015,05,29,05,55,12.60
2015,05,29,05,56,12.60
2015,05,29,05,57,12.60
2015,05,29,05,58,12.60
2015,05,29,05,59,12.60
2015,05,29,06,00,12.60
2015,05,29,06,01,12.60
2015,05,29,06,02,12.60
2015,05,29,06,03,12.60
2015,05,29,06,04,12.70
2015,05,29,06,05,12.70
2015,05,29,06,06,12.70
2015,05,29,06,07,12.70
2015,05,29,06,08,12.70
2015,05,29,06,09,12.70
2015,05,29,06,10,12.70
2015,05,29,06,11,12.70
2015,05,29,06,12,12.70
2015,05,29,06,13,12.80
2015,05,29,06,14,12.80
2015,05,29,06,15,12.80
2015,05,29,06,16,12.80
2015,05,29,06,17,12.70
2015,05,29,06,18,12.70
2015,05,29,06,19,12.70
2015,05,29,06,20,12.70
2015,05,29,06,21,12.70
2015,05,29,06,22,12.70
2015,05,29,06,23,12.70
2015,05,29,06,24,12.80
2015,05,29,06,25,12.80
2015,05,29,06,26,12.80
2015,05,29,06,27,12.80
2015,05,29,06,28,12.80
2015,05,29,06,29,12.80
2015,05,29,06,30,12.80
2015,05,29,06,31,12.80
2015,05,29,06,32,12.80
2015,05,29,06,33,12.90
2015,05,29,06,34,12.90
2015,05,29,06,35,13.00
2015,05,29,06,36,13.10
2015,05,29,06,37,13.10
2015,05,29,06,38,13.20
2015,05,29,06,39,13.30
2015,05,29,06,40,13.40
2015,05,29,06,41,13.50
2015,05,29,06,42,13.50
2015,05,29,06,43,13.60
2015,05,29,06,44,13.70
2015,05,29,06,45,13.80
2015,05,29,06,46,13.90
2015,05,29,06,47,14.00
2015,05,29,06,48,14.00
2015,05,29,06,49,14.20
2015,05,29,06,50,14.30
2015,05,29,06,51,14.30
2015,05,29,06,52,14.40
2015,05,29,06,53,14.50
2015,05,29,06,54,14.60
2015,05,29,06,55,14.70
2015,05,29,06,56,14.80
2015,05,29,06,57,14.80
2015,05,29,06,58,14.80
2015,05,29,06,59,14.90
2015,05,29,07,00,14.90
2015,05,29,07,01,14.90
2015,05,29,07,02,15.00
2015,05,29,07,03,15.10
2015,05,29,07,04,15.10
2015,05,29,07,05,15.20
2015,05,29,07,06,15.20
2015,05,29,07,07,15.30
2015,05,29,07,08,15.40
2015,05,29,07,09,15.50
2015,05,29,07,10,15.60
2015,05,29,07,11,15.70
2015,05,29,07,12,15.80
2015,05,29,07,13,15.90
2015,05,29,07,14,16.00
2015,05,29,07,15,16.10
2015,05,29,07,16,16.10
2015,05,29,07,17,16.20
2015,05,29,07,18,16.30
2015,05,29,07,19,16.30
2015,05,29,07,20,16.30
2015,05,29,07,21,16.30
2015,05,29,07,22,16.30
2015,05,29,07,23,16.30
2015,05,29,07,24,16.40
2015,05,29,07,25,16.40
2015,05,29,07,26,16.40
2015,05,29,07,27,16.40
2015,05,29,07,28,16.40
2015,05,29,07,29,16.40
2015,05,29,07,30,16.50
2015,05,29,07,31,16.60
2015,05,29,07,32,16.60
2015,05,29,07,33,16.60
2015,05,29,07,34,16.70
2015,05,29,07,35,16.80
2015,05,29,07,36,16.90
2015,05,29,07,37,17.00
2015,05,29,07,38,17.00
2015,05,29,07,39,17.10
2015,05,29,07,40,17.20
2015,05,29,07,41,17.30
2015,05,29,07,42,17.30
2015,05,29,07,43,17.30
2015,05,29,07,44,17.40
2015,05,29,07,45,17.40
2015,05,29,07,46,17.40
2015,05,29,07,47,17.40
2015,05,29,07,48,17.40
2015,05,29,07,49,17.40
2015,05,29,07,50,17.40
2015,05,29,07,51,17.40
2015,05,29,07,52,17.40
2015,05,29,07,53,17.40
2015,05,29,07,54,17.50
2015,05,29,07,55,17.50
2015,05,29,07,56,17.60
2015,05,29,07,57,17.70
2015,05,29,07,58,17.80
2015,05,29,07,59,17.90
2015,05,29,08,00,17.90
2015,05,29,08,01,18.00
2015,05,29,08,02,18.10
2015,05,29,08,03,18.20
2015,05,29,08,04,18.20
2015,05,29,08,05,18.20
2015,05,29,08,06,18.20
2015,05,29,08,07,18.30
2015,05,29,08,08,18.30
2015,05,29,08,09,18.30
2015,05,29,08,10,18.30
2015,05,29,08,11,18.30
2015,05,29,08,12,18.20
2015,05,29,08,13,18.20
2015,05,29,08,14,18.20
2015,05,29,08,15,18.10
2015,05,29,08,16,18.10
2015,05,29,08,17,18.10
2015,05,29,08,18,18.10
2015,05,29,08,19,18.20
2015,05,29,08,20,18.20
2015,05,29,08,21,18.30
2015,05,29,08,22,18.30
2015,05,29,08,23,18.40
2015,05,29,08,24,18.40
2015,05,29,08,25,18.40
2015,05,29,08,26,18.40
2015,05,29,08,27,18.50
2015,05,29,08,28,18.60
2015,05,29,08,29,18.60
2015,05,29,08,30,18.60
2015,05,29,08,31,18.60
2015,05,29,08,32,18.70
2015,05,29,08,33,18.70
2015,05,29,08,34,18.70
2015,05,29,08,35,18.70
2015,05,29,08,36,18.80
2015,05,29,08,37,18.80
2015,05,29,08,38,18.80
2015,05,29,08,39,18.80
2015,05,29,08,40,18.70
2015,05,29,08,41,18.70
2015,05,29,08,42,18.70
2015,05,29,08,43,18.70
2015,05,29,08,44,18.70
2015,05,29,08,45,18.70
2015,05,29,08,46,18.60
2015,05,29,08,47,18.50
2015,05,29,08,48,18.40
2015,05,29,08,49,18.40
2015,05,29,08,50,18.40
2015,05,29,08,51,18.40
2015,05,29,08,52,18.50
2015,05,29,08,53,18.50
2015,05,29,08,54,18.60
2015,05,29,08,55,18.60
2015,05,29,08,56,18.70
2015,05,29,08,57,18.80
2015,05,29,08,58,18.80
2015,05,29,08,59,18.80
2015,05,29,09,00,18.80
2015,05,29,09,01,18.80
2015,05,29,09,02,18.80
2015,05,29,09,03,18.90
2015,05,29,09,04,18.90
2015,05,29,09,05,18.90
2015,05,29,09,06,19.00
2015,05,29,09,07,19.00
2015,05,29,09,08,19.00
2015,05,29,09,09,19.10
2015,05,29,09,10,19.10
2015,05,29,09,11,19.20
2015,05,29,09,12,19.20
2015,05,29,09,13,19.30
2015,05,29,09,14,19.40
2015,05,29,09,15,19.50
2015,05,29,09,16,19.60
2015,05,29,09,17,19.70
2015,05,29,09,18,19.80
2015,05,29,09,19,19.90
2015,05,29,09,20,19.90
2015,05,29,09,21,19.90
2015,05,29,09,22,19.90
2015,05,29,09,23,19.80
2015,05,29,09,24,19.80
2015,05,29,09,25,19.70
2015,05,29,09,26,19.70
2015,05,29,09,27,19.70
2015,05,29,09,28,19.70
2015,05,29,09,29,19.70
2015,05,29,09,30,19.80
2015,05,29,09,31,20.00
2015,05,29,09,32,20.20
2015,05,29,09,33,20.20
2015,05,29,09,34,20.30
2015,05,29,09,35,20.40
2015,05,29,09,36,20.40
2015,05,29,09,37,20.40
2015,05,29,09,38,20.40
2015,05,29,09,39,20.50
2015,05,29,09,40,20.60
2015,05,29,09,41,20.70
2015,05,29,09,42,20.70
2015,05,29,09,43,20.80
2015,05,29,09,44,20.80
2015,05,29,09,45,20.80
2015,05,29,09,46,20.80
2015,05,29,09,47,20.80
2015,05,29,09,48,20.80
2015,05,29,09,49,20.80
2015,05,29,09,50,20.70
2015,05,29,09,51,20.70
2015,05,29,09,52,20.70
2015,05,29,09,53,20.60
2015,05,29,09,54,20.70
2015,05,29,09,55,20.80
2015,05,29,09,56,20.80
2015,05,29,09,57,20.80
2015,05,29,09,58,20.80
2015,05,29,09,59,20.80
2015,05,29,10,00,20.90
2015,05,29,10,01,20.90
2015,05,29,10,02,20.90
2015,05,29,10,03,20.90
2015,05,29,10,04,21.00
2015,05,29,10,05,21.00
2015,05,29,10,06,21.00
2015,05,29,10,07,21.00
2015,05,29,10,08,21.00
2015,05,29,10,09,21.00
2015,05,29,10,10,21.00
2015,05,29,10,11,21.00
2015,05,29,10,12,21.00
2015,05,29,10,13,21.10
2015,05,29,10,14,21.10
2015,05,29,10,15,21.00
2015,05,29,10,16,21.10
2015,05,29,10,17,21.10
2015,05,29,10,18,21.10
2015,05,29,10,19,21.10
2015,05,29,10,20,21.00
2015,05,29,10,21,21.00
2015,05,29,10,22,21.00
2015,05,29,10,23,20.90
2015,05,29,10,24,20.90
2015,05,29,10,25,21.00
2015,05,29,10,26,21.00
2015,05,29,10,27,21.00
2015,05,29,10,28,21.00
2015,05,29,10,29,21.00
2015,05,29,10,30,21.00
2015,05,29,10,31,21.10
2015,05,29,10,32,21.10
2015,05,29,10,33,21.10
2015,05,29,10,34,21.20
2015,05,29,10,35,21.20
2015,05,29,10,36,21.30
2015,05,29,10,37,21.30
2015,05,29,10,38,21.40
2015,05,29,10,39,21.50
2015,05,29,10,40,21.60
2015,05,29,10,41,21.60
2015,05,29,10,42,21.60
2015,05,29,10,43,21.70
2015,05,29,10,44,21.60
2015,05,29,10,45,21.50
2015,05,29,10,46,21.40
2015,05,29,10,47,21.30
2015,05,29,10,48,21.30
2015,05,29,10,49,21.30
2015,05,29,10,50,21.20
2015,05,29,10,51,21.10
2015,05,29,10,52,21.10
2015,05,29,10,53,21.20
2015,05,29,10,54,21.10
2015,05,29,10,55,21.10
2015,05,29,10,56,21.20
2015,05,29,10,57,21.20
2015,05,29,10,58,21.20
2015,05,29,10,59,21.20
2015,05,29,11,00,21.20
2015,05,29,11,01,21.20
2015,05,29,11,02,21.20
2015,05,29,11,03,21.20
2015,05,29,11,04,21.00
2015,05,29,11,05,20.90
2015,05,29,11,06,20.80
2015,05,29,11,07,20.90
2015,05,29,11,08,21.00
2015,05,29,11,09,21.00
2015,05,29,11,10,21.10
2015,05,29,11,11,21.10
2015,05,29,11,12,21.10
2015,05,29,11,13,21.10
2015,05,29,11,14,21.20
2015,05,29,11,15,21.30
2015,05,29,11,16,21.40
2015,05,29,11,17,21.40
2015,05,29,11,18,21.40
2015,05,29,11,19,21.50
2015,05,29,11,20,21.60
2015,05,29,11,21,21.60
2015,05,29,11,22,21.60
2015,05,29,11,23,21.60
2015,05,29,11,24,21.60
2015,05,29,11,25,21.70
2015,05,29,11,26,21.70
2015,05,29,11,27,21.80
2015,05,29,11,28,22.00
2015,05,29,11,29,22.10
2015,05,29,11,30,22.20
2015,05,29,11,31,22.20
2015,05,29,11,32,22.20
2015,05,29,11,33,22.10
2015,05,29,11,34,22.10
2015,05,29,11,35,22.20
2015,05,29,11,36,22.30
2015,05,29,11,37,22.40
2015,05,29,11,38,22.50
2015,05,29,11,39,22.50
2015,05,29,11,40,22.40
2015,05,29,11,41,22.50
2015,05,29,11,42,22.50
2015,05,29,11,43,22.40
2015,05,29,11,44,22.40
2015,05,29,11,45,22.30
2015,05,29,11,46,22.30
2015,05,29,11,47,22.30
2015,05,29,11,48,22.30
2015,05,29,11,49,22.40
2015,05,29,11,50,22.50
2015,05,29,11,51,22.50
2015,05,29,11,52,22.60
2015,05,29,11,53,22.50
2015,05,29,11,54,22.50
2015,05,29,11,55,22.60
2015,05,29,11,56,22.60
2015,05,29,11,57,22.50
2015,05,29,11,58,22.40
2015,05,29,11,59,22.40
2015,05,29,12,00,22.40
2015,05,29,12,01,22.40
2015,05,29,12,02,22.40
2015,05,29,12,03,22.40
2015,05,29,12,04,22.40
2015,05,29,12,05,22.30
2015,05,29,12,06,22.30
2015,05,29,12,07,22.30
2015,05,29,12,08,22.50
2015,05,29,12,09,22.60
2015,05,29,12,10,22.70
2015,05,29,12,11,22.60
2015,05,29,12,12,22.40
2015,05,29,12,13,22.30
2015,05,29,12,14,22.30
2015,05,29,12,15,22.30
2015,05,29,12,16,22.30
2015,05,29,12,17,22.30
2015,05,29,12,18,22.30
2015,05,29,12,19,22.30
2015,05,29,12,20,22.30
2015,05,29,12,21,22.40
2015,05,29,12,22,22.30
2015,05,29,12,23,22.30
2015,05,29,12,24,22.40
2015,05,29,12,25,22.60
2015,05,29,12,26,22.80
2015,05,29,12,27,22.90
2015,05,29,12,28,23.00
2015,05,29,12,29,23.10
2015,05,29,12,30,23.30
2015,05,29,12,31,23.30
2015,05,29,12,32,23.20
2015,05,29,12,33,23.20
2015,05,29,12,34,23.30
2015,05,29,12,35,23.40
2015,05,29,12,36,23.40
2015,05,29,12,37,23.50
2015,05,29,12,38,23.50
2015,05,29,12,39,23.50
2015,05,29,12,40,23.60
2015,05,29,12,41,23.60
2015,05,29,12,42,23.50
2015,05,29,12,43,23.50
2015,05,29,12,44,23.40
2015,05,29,12,45,23.40
2015,05,29,12,46,23.40
2015,05,29,12,47,23.40
2015,05,29,12,48,23.50
2015,05,29,12,49,23.60
2015,05,29,12,50,23.60
2015,05,29,12,51,23.70
2015,05,29,12,52,23.80
2015,05,29,12,53,23.90
2015,05,29,12,54,23.90
2015,05,29,12,55,23.80
2015,05,29,12,56,23.70
2015,05,29,12,57,23.60
2015,05,29,12,58,23.50
2015,05,29,12,59,23.40
2015,05,29,13,00,23.20
2015,05,29,13,01,23.10
2015,05,29,13,02,23.10
2015,05,29,13,03,23.10
2015,05,29,13,04,23.20
2015,05,29,13,05,23.20
2015,05,29,13,06,23.20
2015,05,29,13,07,23.30
2015,05,29,13,08,23.30
2015,05,29,13,09,23.30
2015,05,29,13,10,23.30
2015,05,29,13,11,23.30
2015,05,29,13,12,23.30
2015,05,29,13,13,23.30
2015,05,29,13,14,23.40
2015,05,29,13,15,23.40
2015,05,29,13,16,23.40
2015,05,29,13,17,23.30
2015,05,29,13,18,23.40
2015,05,29,13,19,23.40
2015,05,29,13,20,23.40
2015,05,29,13,21,23.40
2015,05,29,13,22,23.40
2015,05,29,13,23,23.50
2015,05,29,13,24,23.40
2015,05,29,13,25,23.40
2015,05,29,13,26,23.40
2015,05,29,13,27,23.50
2015,05,29,13,28,23.50
2015,05,29,13,29,23.60
2015,05,29,13,30,23.60
2015,05,29,13,31,23.70
2015,05,29,13,32,23.70
2015,05,29,13,33,23.80
2015,05,29,13,34,23.90
2015,05,29,13,35,23.90
2015,05,29,13,36,24.00
2015,05,29,13,37,24.00
2015,05,29,13,38,23.90
2015,05,29,13,39,23.90
2015,05,29,13,40,23.90
2015,05,29,13,41,24.00
2015,05,29,13,42,24.10
2015,05,29,13,43,24.20
2015,05,29,13,44,24.30
2015,05,29,13,45,24.30
2015,05,29,13,46,24.40
2015,05,29,13,47,24.40
2015,05,29,13,48,24.40
2015,05,29,13,49,24.30
2015,05,29,13,50,24.30
2015,05,29,13,51,24.20
2015,05,29,13,52,24.10
2015,05,29,13,53,24.10
2015,05,29,13,54,24.10
2015,05,29,13,55,24.10
2015,05,29,13,56,24.20
2015,05,29,13,57,24.30
2015,05,29,13,58,24.30
2015,05,29,13,59,24.30
2015,05,29,14,00,24.40
2015,05,29,14,01,24.30
2015,05,29,14,02,24.40
2015,05,29,14,03,24.40
2015,05,29,14,04,24.40
2015,05,29,14,05,24.40
2015,05,29,14,06,24.50
2015,05,29,14,07,24.60
2015,05,29,14,08,24.70
2015,05,29,14,09,24.90
2015,05,29,14,10,24.90
2015,05,29,14,11,25.00
2015,05,29,14,12,25.00
2015,05,29,14,13,25.00
2015,05,29,14,14,24.90
2015,05,29,14,15,24.80
2015,05,29,14,16,24.80
2015,05,29,14,17,24.80
2015,05,29,14,18,24.90
2015,05,29,14,19,24.90
2015,05,29,14,20,24.80
2015,05,29,14,21,24.80
2015,05,29,14,22,24.90
2015,05,29,14,23,25.00
2015,05,29,14,24,25.10
2015,05,29,14,25,25.10
2015,05,29,14,26,25.10
2015,05,29,14,27,25.00
2015,05,29,14,28,24.80
2015,05,29,14,29,24.60
2015,05,29,14,30,24.60
2015,05,29,14,31,24.70
2015,05,29,14,32,24.80
2015,05,29,14,33,24.90
2015,05,29,14,34,25.00
2015,05,29,14,35,25.10
2015,05,29,14,36,25.20
2015,05,29,14,37,25.20
2015,05,29,14,38,25.10
2015,05,29,14,39,25.10
2015,05,29,14,40,25.20
2015,05,29,14,41,25.30
2015,05,29,14,42,25.30
2015,05,29,14,43,25.30
2015,05,29,14,44,25.20
2015,05,29,14,45,25.00
2015,05,29,14,46,24.80
2015,05,29,14,47,24.80
2015,05,29,14,48,24.80
2015,05,29,14,49,24.90
2015,05,29,14,50,24.90
2015,05,29,14,51,24.90
2015,05,29,14,52,24.80
2015,05,29,14,53,24.70
2015,05,29,14,54,24.70
2015,05,29,14,55,24.70
2015,05,29,14,56,24.80
2015,05,29,14,57,24.90
2015,05,29,14,58,25.10
2015,05,29,14,59,25.20
2015,05,29,15,00,25.30
2015,05,29,15,01,25.30
2015,05,29,15,02,25.20
2015,05,29,15,03,25.10
2015,05,29,15,04,25.00
2015,05,29,15,05,24.90
2015,05,29,15,06,24.90
2015,05,29,15,07,24.90
2015,05,29,15,08,24.90
2015,05,29,15,09,24.90
2015,05,29,15,10,25.10
2015,05,29,15,11,25.30
2015,05,29,15,12,25.50
2015,05,29,15,13,25.60
2015,05,29,15,14,25.70
2015,05,29,15,15,25.80
2015,05,29,15,16,25.80
2015,05,29,15,17,25.90
2015,05,29,15,18,25.90
2015,05,29,15,19,25.90
2015,05,29,15,20,25.90
2015,05,29,15,21,25.90
2015,05,29,15,22,26.00
2015,05,29,15,23,25.90
2015,05,29,15,24,25.80
2015,05,29,15,25,25.90
2015,05,29,15,26,25.90
2015,05,29,15,27,26.00
2015,05,29,15,28,26.00
2015,05,29,15,29,26.10
2015,05,29,15,30,26.00
2015,05,29,15,31,26.00
2015,05,29,15,32,25.90
2015,05,29,15,33,25.80
2015,05,29,15,34,25.80
2015,05,29,15,35,25.80
2015,05,29,15,36,25.70
2015,05,29,15,37,25.50
2015,05,29,15,38,25.30
2015,05,29,15,39,25.20
2015,05,29,15,40,25.10
2015,05,29,15,41,25.20
2015,05,29,15,42,25.40
2015,05,29,15,43,25.50
2015,05,29,15,44,25.70
2015,05,29,15,45,25.80
2015,05,29,15,46,25.70
2015,05,29,15,47,25.60
2015,05,29,15,48,25.60
2015,05,29,15,49,25.50
2015,05,29,15,50,25.50
2015,05,29,15,51,25.60
2015,05,29,15,52,25.80
2015,05,29,15,53,25.80
2015,05,29,15,54,25.90
2015,05,29,15,55,26.00
2015,05,29,15,56,26.10
2015,05,29,15,57,26.10
2015,05,29,15,58,26.10
2015,05,29,15,59,26.00
2015,05,29,16,00,26.00
2015,05,29,16,01,26.00
2015,05,29,16,02,26.00
2015,05,29,16,03,25.90
2015,05,29,16,04,25.90
2015,05,29,16,05,25.90
2015,05,29,16,06,25.90
2015,05,29,16,07,25.90
2015,05,29,16,08,25.90
2015,05,29,16,09,26.00
2015,05,29,16,10,25.90
2015,05,29,16,11,26.00
2015,05,29,16,12,26.00
2015,05,29,16,13,26.00
2015,05,29,16,14,26.00
2015,05,29,16,15,26.00
2015,05,29,16,16,25.90
2015,05,29,16,17,25.90
2015,05,29,16,18,26.00
2015,05,29,16,19,26.10
2015,05,29,16,20,26.20
2015,05,29,16,21,26.10
2015,05,29,16,22,25.90
2015,05,29,16,23,25.80
2015,05,29,16,24,25.80
2015,05,29,16,25,25.80
2015,05,29,16,26,25.70
2015,05,29,16,27,25.60
2015,05,29,16,28,25.60
2015,05,29,16,29,25.60
2015,05,29,16,30,25.60
2015,05,29,16,31,25.60
2015,05,29,16,32,25.70
2015,05,29,16,33,25.60
2015,05,29,16,34,25.60
2015,05,29,16,35,25.50
2015,05,29,16,36,25.40
2015,05,29,16,37,25.40
2015,05,29,16,38,25.40
2015,05,29,16,39,25.40
2015,05,29,16,40,25.30
2015,05,29,16,41,25.40
2015,05,29,16,42,25.40
2015,05,29,16,43,25.50
2015,05,29,16,44,25.50
2015,05,29,16,45,25.50
2015,05,29,16,46,25.40
2015,05,29,16,47,25.30
2015,05,29,16,48,25.20
2015,05,29,16,49,25.20
2015,05,29,16,50,25.20
2015,05,29,16,51,25.20
2015,05,29,16,52,25.20
2015,05,29,16,53,25.30
2015,05,29,16,54,25.30
2015,05,29,16,55,25.30
2015,05,29,16,56,25.30
2015,05,29,16,57,25.30
2015,05,29,16,58,25.30
2015,05,29,16,59,25.30
2015,05,29,17,00,25.20
2015,05,29,17,01,25.20
2015,05,29,17,02,25.10
2015,05,29,17,03,25.10
2015,05,29,17,04,25.20
2015,05,29,17,05,25.20
2015,05,29,17,06,25.10
2015,05,29,17,07,25.10
2015,05,29,17,08,25.10
2015,05,29,17,09,25.10
2015,05,29,17,10,25.10
2015,05,29,17,11,25.10
2015,05,29,17,12,25.10
2015,05,29,17,13,25.10
2015,05,29,17,14,25.20
2015,05,29,17,15,25.20
2015,05,29,17,16,25.20
2015,05,29,17,17,25.20
2015,05,29,17,18,25.10
2015,05,29,17,19,25.10